Погода в Куеде

Россия / Пермский край     56°25′48″N   55°35′28″E
В апреле 2022 года жителям России запретили посещать сайт meteo.paraplan.net по решению Генеральной прокуратуры. Аудитория сайта уменьшилась в 10 раз. Владельцы сайта не видят смысла в поддержке погодного сервера в таких условиях. Сайт будет закрыт в октябре.
темп.,
°C
ветер,
м/с
пор.,
м/с
влажн.,
%
обл.,
%
осадки,
мм/ч
давл.,
гПа
погр.,
м
30 сентября, пт
пт3023:00+3в51182100 0.8 1023401
02:00+2в5108395 0.0 1024340
05:00+2в588496 0.0 1025282
08:00+2в488491 0.0 1026272
11:00+4вюв577571 0.0 1027383
14:00+8юв566282 0.0 1028795
17:00+8юв576163 0.0 1029794
20:00+4юв367836 0.0 1030131
1 октября, сб
сб123:00+2юв24835 0.0 103074
02:00+2юв358534 0.0 1030102
05:00+3вюв387896 0.0 1030243
08:00+4юв4875100 0.0 1029336
11:00+7ююв4770100 0.0 1030464
14:00+9ююв575991 0.0 1028711
17:00+10ююв575942 0.0 1027860
20:00+6юв387754 0.0 1027136
2 октября, вс
вс223:00+5ююв41079100 0.0 1026281
02:00+4юв4108799 0.0 1025244
05:00+3юв4108573 0.0 1024253
08:00+4юв4117954 0.0 1024286
11:00+10ю6115471 0.0 1023509
14:00+14ю7104579 0.0 1021796
17:00+15ю7124692 0.0 1020846
20:00+11ю7155132 0.0 1020551
3 октября, пн
пн323:00+10ю71553100 0.0 1019460
02:00+10ю6145599 0.3 1019487
05:00+10ю61460100 1.2 1019442
08:00+10ю51255100 0.1 1020421
11:00+11ю6125496 0.1 1020453
14:00+15ююз61053100 0.0 1021759
17:00+11ююв51375100 0.3 1022443
20:00+13ю51154100 0.0 1023377
4 октября, вт
вт423:00+11ю4115531 0.0 1024275
02:00+9ююв395962 0.0 1025182
05:00+8ююв396063 0.0 1027165
08:00+8ююв395765 0.0 1028173
11:00+13ююз593935 0.0 1029409
14:00+17ю68345 0.0 1029845
17:00+16ю58395 0.0 1029918
20:00+11ююв38542 0.0 1031133